This is the latest recevied weather packets stored in our database for station/object WX6HNX-6. If no packets are shown the sender has not sent any weather packets the latest 10 day(s).
| Time | Temp. | Humidity | Pressure | Rain* | Wind** | Luminosity | Snow |
|---|---|---|---|---|---|---|---|
| 1777757704 | 35° C | 16% | 1009.2 hPa | 0 mm | - | - | - |
| 1777757404 | 35° C | 15% | 1009.3 hPa | 0 mm | - | - | - |
| 1777757104 | 35° C | 16% | 1009.4 hPa | 0 mm | - | - | - |
| 1777756804 | 35° C | 16% | 1009.3 hPa | 0 mm | - | - | - |
| 1777756505 | 34.44° C | 16% | 1009.4 hPa | 0 mm | - | - | - |
| 1777756204 | 34.44° C | 17% | 1009.5 hPa | 0 mm | - | - | - |
| 1777755904 | 34.44° C | 16% | 1009.5 hPa | 0 mm | - | - | - |
| 1777755604 | 35° C | 16% | 1009.6 hPa | 0 mm | - | - | - |
| 1777755304 | 35° C | 16% | 1009.6 hPa | 0 mm | - | - | - |
| 1777755004 | 34.44° C | 15% | 1009.6 hPa | 0 mm | - | - | - |
| 1777754704 | 34.44° C | 17% | 1009.7 hPa | 0 mm | - | - | - |
| 1777754404 | 33.89° C | 17% | 1009.7 hPa | 0 mm | - | - | - |
| 1777753804 | 32.78° C | 19% | 1009.9 hPa | 0 mm | - | - | - |
| 1777753504 | 31.67° C | 22% | 1009.9 hPa | 0 mm | - | - | - |
| 1777753204 | 31.67° C | 23% | 1010 hPa | 0 mm | - | - | - |
| 1777752905 | 31.67° C | 32% | 1010 hPa | 0 mm | - | - | - |
| 1777752605 | 32.22° C | 28% | 1010.1 hPa | 0 mm | - | - | - |
| 1777752304 | 31.67° C | 27% | 1010.2 hPa | 0 mm | - | - | - |
| 1777751704 | 30.56° C | 32% | 1010.4 hPa | 0 mm | - | - | - |
| 1777751404 | 29.44° C | 34% | 1010.5 hPa | 0 mm | - | - | - |
| 1777751105 | 29.44° C | 37% | 1010.6 hPa | 0 mm | - | - | - |
| 1777750806 | 28.89° C | 37% | 1010.6 hPa | 0 mm | - | - | - |
| 1777750504 | 28.89° C | 36% | 1010.7 hPa | 0 mm | - | - | - |
| 1777750204 | 28.89° C | 40% | 1010.8 hPa | 0 mm | - | - | - |
| 1777749906 | 28.33° C | 36% | 1010.9 hPa | 0 mm | - | - | - |
* Rain latest hour (hover to see other rain measurements)
** Current wind speed in m/s (hover to see current wind gust speed)